Location: Moonridge Observatory
(39.2268°N, 77.7914°W)
Time: 03:56:32
(UTC-04:00)

Amateur Radio Satellites - All Passes

Search period start: 20 September 2014 03:26
Search period end: 21 September 2014 03:26
Location: Moonridge Observatory, 39.2268°N, 77.7914°W

Satellite Date Start Highest point End Downlink Frequencies (MHz)
Time Altitude Azimuth
OPAL 20 Sep 03:37:56 03:40:45 15° 59° (ENE) 03:43:35 ?
JAS-1B 20 Sep 03:43:04 03:48:48 75° 286° (WNW) 03:54:32 435.800 - 435.900 CW/SSB
Oscar 16 20 Sep 03:46:55 03:51:19 29° 293° (WNW) 03:55:41 437.025 USB, Beacon 2401.1428
AO-Echo 20 Sep 03:56:37 04:01:12 44° 288° (WNW) 04:05:55 ?
PANSAT 20 Sep 03:58:07 04:00:33 16° 183° (S) 04:02:59 not established
Gurwin Techsat 1B 20 Sep 04:20:49 04:26:07 70° 286° (WNW) 04:31:23 435.225 FM
KITSAT 1 20 Sep 04:28:35 04:36:27 53° 54° (NE) 04:44:16 435.175 FM
ITAMSAT 1 20 Sep 04:31:05 04:35:27 28° 293° (WNW) 04:39:49 435.822 SSB
AO-7 20 Sep 04:31:47 04:38:41 28° 96° (E) 04:45:32 29.400 - 29.500 MHz
Uribyol 2 20 Sep 04:35:24 04:39:31 24° 294° (WNW) 04:43:38 436.500 FM
ISS 20 Sep 04:52:27 04:54:32 15° 341° (NNW) 04:56:38 145.800 FM
TMSAT-1 20 Sep 04:57:51 05:02:51 43° 290° (WNW) 05:07:50 436.925 FM
Uosat F 20 Sep 05:06:59 05:11:42 39° 99° (E) 05:16:23 435.120 FM
AO-27 20 Sep 05:07:46 05:10:13 14° 299° (WNW) 05:12:39 436.795 MHz FM
OPAL 20 Sep 05:13:50 05:18:59 73° 255° (WSW) 05:24:13 ?
RS-15 20 Sep 05:23:46 05:34:51 77° 303° (WNW) 05:45:49 29.354 - 29.394 USB, Beacon 29.352 USB
PANSAT 20 Sep 05:39:27 05:40:00 10° 195° (SSW) 05:40:34 not established
JAS-2 20 Sep 05:45:19 05:49:29 18° 93° (E) 05:53:56 435.800 - 435.900 CW/SSB, 435.910 FM
STRAND 1 20 Sep 05:57:40 06:00:56 18° 63° (ENE) 06:04:12 ?
Hamsat 20 Sep 05:59:17 06:01:22 13° 91° (E) 06:03:26 145.90 MHz
AO-7 20 Sep 06:23:45 06:31:51 61° 293° (WNW) 06:39:57 29.400 - 29.500 MHz
KITSAT 1 20 Sep 06:24:28 06:31:31 35° 253° (WSW) 06:38:33 435.175 FM
SO-50 20 Sep 06:33:38 06:37:25 23° 46° (NE) 06:41:14 436.795 FM
Uosat F 20 Sep 06:46:19 06:50:13 23° 294° (WNW) 06:54:07 435.120 FM
JAS-2 20 Sep 07:28:48 07:34:50 69° 286° (WNW) 07:41:39 435.800 - 435.900 CW/SSB, 435.910 FM
Hamsat 20 Sep 07:33:30 07:37:35 47° 287° (WNW) 07:41:37 145.90 MHz
STRAND 1 20 Sep 07:34:40 07:39:39 56° 259° (W) 07:44:40 ?
RS-15 20 Sep 07:40:40 07:49:20 26° 330° (NNW) 07:58:03 29.354 - 29.394 USB, Beacon 29.352 USB
ISS 20 Sep 08:07:46 08:10:10 18° 22° (NNE) 08:12:35 145.800 FM
UOSAT-12 20 Sep 08:09:04 08:12:18 18° 43° (NE) 08:15:30 437.025 FM, 437.400 FM
SO-50 20 Sep 08:13:34 08:18:14 49° 243° (WSW) 08:22:55 436.795 FM
AO-7 20 Sep 08:19:36 08:22:57 13° 313° (NW) 08:26:19 29.400 - 29.500 MHz
MaSat-1 20 Sep 08:26:00 08:30:53 57° 111° (ESE) 08:35:45 437.345 MHz
HO-68 20 Sep 08:37:57 08:40:36 12° 88° (E) 08:43:15 435.675 MHz FM
SO-67 20 Sep 08:41:13 08:44:32 45° 285° (WNW) 08:47:50 435.3500 MHz FM
JAS-2 20 Sep 09:18:10 09:19:03 10° 302° (WNW) 09:19:57 435.800 - 435.900 CW/SSB, 435.910 FM
ISS 20 Sep 09:43:54 09:47:13 78° 220° (SW) 09:50:32 145.800 FM
UOSAT-12 20 Sep 09:48:13 09:52:54 64° 242° (WSW) 09:57:29 437.025 FM, 437.400 FM
RS-15 20 Sep 10:00:34 10:07:17 17° 7° (N) 10:14:06 29.354 - 29.394 USB, Beacon 29.352 USB
MaSat-1 20 Sep 10:04:21 10:07:58 20° 307° (NW) 10:11:31 437.345 MHz
HO-68 20 Sep 10:22:03 10:29:16 80° 105° (ESE) 10:36:28 435.675 MHz FM
FUNcube-1 20 Sep 10:36:47 10:40:05 19° 93° (E) 10:43:21 145.950 - 145.970 MHz USB
Oscar 11 20 Sep 10:44:20 10:48:37 56° 100° (E) 10:52:51 145.825 FM, Beacon 2401.500 USB
UKube-1 20 Sep 11:01:42 11:06:03 69° 285° (WNW) 11:10:22 145.840 MHz, 145.915 MHz
Sapphire 20 Sep 11:10:47 11:13:16 13° 103° (ESE) 11:15:46 437.095 MHz 1200 baud AX-25 AFSK
PCSat 20 Sep 11:35:31 11:39:54 26° 107° (ESE) 11:44:18 145.825 MHz
HO-68 20 Sep 12:11:18 12:16:09 20° 303° (WNW) 12:21:01 435.675 MHz FM
FUNcube-1 20 Sep 12:12:18 12:16:36 39° 289° (WNW) 12:20:50 145.950 - 145.970 MHz USB
RS-15 20 Sep 12:14:17 12:24:18 37° 41° (NE) 12:34:35 29.354 - 29.394 USB, Beacon 29.352 USB
Oscar 11 20 Sep 12:22:17 12:24:18 13° 296° (WNW) 12:26:19 145.825 FM, Beacon 2401.500 USB
JAS-1B 20 Sep 12:38:49 12:43:22 17° 59° (ENE) 12:47:33 435.800 - 435.900 CW/SSB
Oscar 19 20 Sep 12:45:55 12:49:28 19° 64° (ENE) 12:53:02 437.125 CW, 437.150 USB
Sapphire 20 Sep 12:50:35 12:55:58 76° 299° (WNW) 13:01:25 437.095 MHz 1200 baud AX-25 AFSK
AO-27 20 Sep 13:07:22 13:09:39 13° 60° (ENE) 13:11:57 436.795 MHz FM
PCSat 20 Sep 13:17:57 13:23:03 42° 304° (NW) 13:28:13 145.825 MHz
Oscar 10/S400 20 Sep 13:18:14 13:30:39 14° 153° (SSE) 13:39:57 145.825 - 145.975 CW/USB, Beacon 145.810 USB
Oscar 16 20 Sep 13:23:16 13:28:08 43° 70° (ENE) 13:33:02 437.025 USB, Beacon 2401.1428
AO-Echo 20 Sep 13:31:14 13:34:50 22° 67° (ENE) 13:38:25 ?
Gurwin Techsat 1B 20 Sep 14:02:48 14:06:38 21° 64° (ENE) 14:10:29 435.225 FM
ITAMSAT 1 20 Sep 14:08:20 14:13:15 47° 71° (ENE) 14:18:13 435.822 SSB
Uribyol 2 20 Sep 14:12:12 14:17:13 55° 72° (ENE) 14:22:17 436.500 FM
Oscar 19 20 Sep 14:23:19 14:28:23 53° 260° (W) 14:33:28 437.125 CW, 437.150 USB
JAS-1B 20 Sep 14:24:30 14:33:14 84° 74° (ENE) 14:40:30 435.800 - 435.900 CW/SSB
RS-15 20 Sep 14:26:30 14:37:33 72° 244° (WSW) 14:49:06 29.354 - 29.394 USB, Beacon 29.352 USB
Sapphire 20 Sep 14:37:52 14:40:20 13° 319° (NW) 14:42:49 437.095 MHz 1200 baud AX-25 AFSK
TMSAT-1 20 Sep 14:38:20 14:42:57 32° 68° (ENE) 14:47:35 436.925 FM
AO-27 20 Sep 14:43:18 14:48:28 79° 257° (WSW) 14:53:41 436.795 MHz FM
Oscar 16 20 Sep 15:03:43 15:07:38 22° 266° (W) 15:11:36 437.025 USB, Beacon 2401.1428
AO-Echo 20 Sep 15:09:02 15:13:24 36° 262° (W) 15:17:44 ?
AO-7 20 Sep 15:29:39 15:37:01 37° 61° (ENE) 15:44:23 29.400 - 29.500 MHz
Gurwin Techsat 1B 20 Sep 15:41:06 15:46:13 49° 260° (W) 15:51:22 435.225 FM
ITAMSAT 1 20 Sep 15:49:19 15:52:58 19° 267° (W) 15:56:39 435.822 SSB
Uribyol 2 20 Sep 15:53:47 15:57:01 17° 268° (W) 16:00:16 436.500 FM
TMSAT-1 20 Sep 16:18:11 16:22:48 30° 264° (W) 16:27:27 436.925 FM
JAS-1B 20 Sep 16:18:42 16:24:09 18° 267° (W) 16:29:09 435.800 - 435.900 CW/SSB
Uosat F 20 Sep 16:19:11 16:23:59 49° 71° (ENE) 16:28:48 435.120 FM
Saudisat 1A 20 Sep 16:41:16 16:45:00 28° 113° (ESE) 16:48:45 436.775 MHz
RS-15 20 Sep 16:42:47 16:47:56 14° 263° (W) 16:53:11 29.354 - 29.394 USB, Beacon 29.352 USB
AO-7 20 Sep 17:21:35 17:29:33 50° 259° (WSW) 17:37:33 29.400 - 29.500 MHz
OPAL 20 Sep 17:25:17 17:29:54 32° 99° (E) 17:34:25 ?
JAS-2 20 Sep 17:41:14 17:46:08 41° 70° (ENE) 17:50:59 435.800 - 435.900 CW/SSB, 435.910 FM
Uosat F 20 Sep 17:59:43 18:03:01 18° 267° (W) 18:06:20 435.120 FM
MaSat-1 20 Sep 18:20:31 18:24:17 90° 272° (W) 18:27:28 437.345 MHz
Saudisat 1A 20 Sep 18:20:36 18:24:29 30° 310° (NW) 18:28:24 436.775 MHz
Hamsat 20 Sep 18:25:07 18:29:29 79° 258° (WSW) 18:33:51 145.90 MHz
KITSAT 1 20 Sep 18:55:49 19:03:11 41° 109° (ESE) 19:10:35 435.175 FM
OPAL 20 Sep 19:04:14 19:08:40 30° 295° (WNW) 19:13:02 ?
SO-67 20 Sep 19:12:49 19:16:06 42° 74° (ENE) 19:19:24 435.3500 MHz FM
JAS-2 20 Sep 19:27:37 19:31:28 20° 266° (W) 19:35:17 435.800 - 435.900 CW/SSB, 435.910 FM
STRAND 1 20 Sep 19:46:14 19:51:16 54° 101° (E) 19:56:17 ?
Sapphire 20 Sep 19:58:34 20:00:37 12° 40° (NE) 20:02:39 437.095 MHz 1200 baud AX-25 AFSK
PCSat 20 Sep 20:24:12 20:28:05 20° 47° (NE) 20:31:58 145.825 MHz
HO-68 20 Sep 20:49:10 20:56:03 54° 68° (ENE) 21:02:58 435.675 MHz FM
KITSAT 1 20 Sep 20:50:46 20:58:28 46° 308° (NW) 21:06:12 435.175 FM
STRAND 1 20 Sep 21:26:34 21:30:01 18° 297° (WNW) 21:33:27 ?
FUNcube-1 20 Sep 21:33:15 21:35:35 14° 64° (ENE) 21:37:58 145.950 - 145.970 MHz USB
Oscar 11 20 Sep 21:38:18 21:42:20 38° 72° (ENE) 21:46:23 145.825 FM, Beacon 2401.500 USB
Sapphire 20 Sep 21:39:39 21:45:05 68° 60° (ENE) 21:50:28 437.095 MHz 1200 baud AX-25 AFSK
UKube-1 20 Sep 21:55:54 22:00:13 89° 76° (ENE) 22:04:35 145.840 MHz, 145.915 MHz
PCSat 20 Sep 22:06:36 22:12:00 66° 245° (WSW) 22:17:20 145.825 MHz
SO-50 20 Sep 22:27:17 22:31:43 72° 119° (ESE) 22:36:17 436.795 FM
HO-68 20 Sep 22:38:10 22:44:01 27° 265° (W) 22:49:56 435.675 MHz FM
KITSAT 1 20 Sep 22:52:26 22:56:14 14° 333° (NNW) 23:00:04 435.175 FM
FUNcube-1 20 Sep 23:07:10 23:11:28 54° 260° (W) 23:15:54 145.950 - 145.970 MHz USB
Oscar 11 20 Sep 23:15:42 23:18:38 18° 267° (W) 23:21:36 145.825 FM, Beacon 2401.500 USB
Sapphire 20 Sep 23:24:51 23:27:52 15° 256° (WSW) 23:30:52 437.095 MHz 1200 baud AX-25 AFSK
UOSAT-12 20 Sep 23:58:10 00:02:36 49° 117° (ESE) 00:07:08 437.025 FM, 437.400 FM
SO-50 21 Sep 00:10:04 00:12:48 16° 318° (NW) 00:15:35 436.795 FM
Saudisat 1A 21 Sep 01:08:55 01:12:10 20° 46° (NE) 01:15:23 436.775 MHz
Oscar 16 21 Sep 01:37:16 01:40:28 16° 92° (E) 01:43:38 437.025 USB, Beacon 2401.1428
UOSAT-12 21 Sep 01:39:28 01:43:01 21° 315° (NW) 01:46:38 437.025 FM, 437.400 FM
PANSAT 21 Sep 01:53:48 01:55:50 14° 171° (S) 01:57:51 not established
JAS-1B 21 Sep 02:12:51 02:16:39 18° 93° (E) 02:20:28 435.800 - 435.900 CW/SSB
ITAMSAT 1 21 Sep 02:23:13 02:26:49 19° 93° (E) 02:30:23 435.822 SSB
ISS 21 Sep 02:25:13 02:28:30 62° 138° (SE) 02:31:48 145.800 FM
Uribyol 2 21 Sep 02:26:46 02:30:44 22° 94° (E) 02:34:41 436.500 FM
Oscar 19 21 Sep 02:35:56 02:41:03 60° 101° (E) 02:46:07 437.125 CW, 437.150 USB
RS-15 21 Sep 02:41:22 02:48:10 19° 100° (E) 02:54:52 29.354 - 29.394 USB, Beacon 29.352 USB
Saudisat 1A 21 Sep 02:47:44 02:52:00 49° 243° (WSW) 02:56:13 436.775 MHz
KITSAT 1 21 Sep 02:50:10 02:55:49 20° 36° (NE) 03:01:26 435.175 FM
TMSAT-1 21 Sep 02:56:43 02:59:10 13° 90° (E) 03:01:36 436.925 FM
AO-27 21 Sep 02:57:36 03:02:31 41° 99° (E) 03:07:25 436.795 MHz FM
Oscar 16 21 Sep 03:15:05 03:20:09 56° 288° (WNW) 03:25:10 437.025 USB, Beacon 2401.1428
AO-Echo 21 Sep 03:16:18 03:21:11 75° 102° (ESE) 03:26:12 ?
